Location: Mahannah Oil Field
(37.4664°N, 96.6003°W)
Time: 23:45:48
(UTC+00:00)

Vanguard 3 - Pass Details

Date: 30 January 2021
Orbit: 508 x 3262 km, 33.4° (Epoch: 03 March)

Event Time Altitude Azimuth Distance (km) Brightness Sun altitude
Exits shadow 09:43:12 28° 104° (ESE) 2,071 9.4 -45.3°
Drops below altitude 10° 09:47:39 10° 96° (E) 3,656 11.0 -44.4°
Sets 09:51:47 0° 94° (E) 5,117 12.0 -43.6°
